TimeMDT,TemperatureF,Dew PointF,Humidity,Sea Level PressureIn,VisibilityMPH,Wind Direction,Wind SpeedMPH,Gust SpeedMPH,PrecipitationIn,Events,Conditions,WindDirDegrees,DateUTC
12:01 AM,48.2,46.4,93,30.37,2.5,Variable,4.6,-,0.04,Rain,Rain,0,2013-10-25 06:01:00
12:10 AM,48.2,46.4,93,30.37,3.0,Calm,Calm,-,0.07,Rain,Rain,0,2013-10-25 06:10:00
12:21 AM,48.2,46.4,93,30.36,2.0,Calm,Calm,-,0.13,Rain,Heavy Rain,0,2013-10-25 06:21:00
12:32 AM,48.2,46.4,93,30.35,5.0,NNE,5.8,-,0.15,Rain,Light Rain,20,2013-10-25 06:32:00
12:53 AM,48.0,46.0,93,30.13,9.0,NE,11.5,-,0.16,Rain,Light Rain,40,2013-10-25 06:53:00
1:35 AM,48.2,46.4,93,30.34,10.0,NNW,12.7,-,0.00,,Overcast,330,2013-10-25 07:35:00
1:53 AM,48.0,45.0,89,30.14,10.0,North,10.4,-,0.00,,Overcast,350,2013-10-25 07:53:00
2:53 AM,46.9,44.1,90,30.11,10.0,ENE,5.8,-,0.01,,Partly Cloudy,70,2013-10-25 08:53:00
3:53 AM,46.9,45.0,93,30.14,9.0,SSE,6.9,-,0.00,Rain,Light Rain,160,2013-10-25 09:53:00
4:53 AM,46.0,45.0,96,30.13,10.0,SE,5.8,-,0.01,,Overcast,130,2013-10-25 10:53:00
5:53 AM,46.0,44.1,93,30.14,8.0,SE,9.2,-,0.01,Rain,Light Rain,140,2013-10-25 11:53:00
6:53 AM,45.0,43.0,93,30.16,10.0,West,5.8,-,0.01,Rain,Light Rain,280,2013-10-25 12:53:00
7:53 AM,45.0,43.0,93,30.17,10.0,North,3.5,-,0.02,Rain,Light Rain,350,2013-10-25 13:53:00
8:53 AM,46.0,44.1,93,30.21,10.0,SSW,3.5,-,0.00,Rain,Light Rain,210,2013-10-25 14:53:00
9:53 AM,48.9,44.1,83,30.14,10.0,SSE,9.2,-,0.03,,Mostly Cloudy,150,2013-10-25 15:53:00
10:53 AM,48.0,44.1,86,30.16,10.0,SSW,6.9,-,0.00,,Overcast,200,2013-10-25 16:53:00
11:53 AM,48.9,44.1,83,30.19,10.0,South,8.1,-,0.00,Rain,Light Rain,190,2013-10-25 17:53:00
12:20 PM,48.2,46.4,93,30.32,10.0,SSW,6.9,-,0.01,Rain,Light Rain,200,2013-10-25 18:20:00
12:53 PM,50.0,46.0,86,30.13,10.0,East,13.8,-,0.01,,Overcast,90,2013-10-25 18:53:00
1:53 PM,53.1,46.0,77,30.10,10.0,SSE,8.1,-,N/A,,Partly Cloudy,150,2013-10-25 19:53:00
2:53 PM,54.0,45.0,72,30.07,10.0,Calm,Calm,-,N/A,,Scattered Clouds,0,2013-10-25 20:53:00
3:53 PM,57.0,43.0,59,30.06,10.0,Calm,Calm,-,N/A,,Clear,0,2013-10-25 21:53:00
4:53 PM,57.0,44.1,62,30.05,10.0,SSE,11.5,-,N/A,,Mostly Cloudy,160,2013-10-25 22:53:00
5:53 PM,55.0,45.0,69,30.04,10.0,SSE,6.9,-,N/A,,Clear,160,2013-10-25 23:53:00
6:53 PM,53.1,46.0,77,30.08,10.0,Calm,Calm,-,N/A,,Scattered Clouds,0,2013-10-26 00:53:00
7:53 PM,46.9,39.9,77,30.12,7.0,West,25.3,35.7,0.03,Rain,Rain,260,2013-10-26 01:53:00
8:00 PM,44.6,39.2,81,30.24,4.0,West,21.9,34.5,0.05,Rain,Heavy Rain,270,2013-10-26 02:00:00
8:22 PM,46.4,42.8,87,30.27,7.0,WSW,10.4,-,0.13,Rain-Thunderstorm,Light Rain,240,2013-10-26 02:22:00
8:35 PM,44.6,42.8,93,30.27,4.0,West,3.5,-,0.16,Rain,Rain,280,2013-10-26 02:35:00
8:42 PM,44.6,42.8,93,30.27,4.0,Calm,Calm,-,0.18,Rain-Thunderstorm,Thunderstorms and Rain,0,2013-10-26 02:42:00
8:53 PM,46.0,42.1,86,30.14,7.0,NE,11.5,19.6,0.19,Rain-Thunderstorm,Light Thunderstorms and Rain,50,2013-10-26 02:53:00
9:02 PM,48.2,39.2,71,30.24,4.0,North,18.4,29.9,0.01,Rain,Light Rain,350,2013-10-26 03:02:00
9:09 PM,48.2,39.2,71,30.25,8.0,NW,11.5,23.0,0.02,Rain,Light Rain,310,2013-10-26 03:09:00
9:19 PM,46.4,42.8,87,30.26,10.0,WSW,10.4,24.2,0.02,,Overcast,240,2013-10-26 03:19:00
9:53 PM,45.0,43.0,93,30.15,10.0,WNW,3.5,-,0.02,,Overcast,300,2013-10-26 03:53:00
10:53 PM,46.0,39.9,79,30.15,10.0,NE,8.1,-,N/A,,Scattered Clouds,50,2013-10-26 04:53:00
11:53 PM,45.0,39.9,82,30.13,10.0,North,4.6,-,N/A,,Mostly Cloudy,350,2013-10-26 05:53:00